Weather History for KPVU - October, 2013

Change the Weather History Date:

Thursday, October 24, 2013

  Actual Average Record
Temperature  
Mean Temperature 48 °F -  
Max Temperature 60 °F 55 °F 78 °F (2014)
Min Temperature 35 °F 33 °F 24 °F (2001)
Degree Days  
Heating Degree Days 18    
Moisture  
Dew Point 34 °F    
Average Humidity 67    
Maximum Humidity 87    
Minimum Humidity 34    
Precipitation  
Precipitation 0.00 in - - ()
Sea Level Pressure  
Sea Level Pressure 30.16 in    
Wind  
Wind Speed 1 mph (East)    
Max Wind Speed 9 mph    
Max Gust Speed -    
Visibility 12 miles    
Events      
Averages and records for this station are not official NWS values.
T = Trace of Precipitation, MM = Missing Value Source: NWS Daily Summary

Daily Weather History Graph

Daily Weather History Graph

Search for Another Location

Airport or City:

Trip Planner

Search our weather history database for the weather conditions in past years. The results will help you decide how hot, cold, wet, or windy it might be!

Date:

Astronomy

Oct. 24, 2013 Rise Set
Actual Time 7:47 AM MDT 6:33 PM MDT
Civil Twilight 7:19 AM MDT 7:01 PM MDT
Nautical Twilight 6:48 AM MDT 7:33 PM MDT
Astronomical Twilight 6:16 AM MDT 8:04 PM MDT
Moon 11:01 PM MDT (10/24) 12:51 PM MDT (10/24)
Length of Visible Light 11h 41m
Length of Day
10h 46m
Waning Gibbous, 70% of the Moon is Illuminated
Oct 24
Waning Gibbous
Oct 26
Last Quarter
Nov 3
New
Nov 9
First Quarter
Nov 17
Full

Hourly Weather History & Observations

Time (MDT) Temp. Windchill Dew Point Humidity Pressure Visibility Wind Dir Wind Speed Gust Speed Precip Events Conditions
12:15 AM 46.4 °F - 35.6 °F 66% 30.15 in 10.0 mi Calm Calm - N/A   Clear
12:35 AM 42.8 °F - 35.6 °F 76% 30.15 in 10.0 mi Calm Calm - N/A   Clear
12:55 AM 39.2 °F 35.9 °F 33.8 °F 81% 30.15 in 10.0 mi East 4.6 mph - N/A   Clear
1:15 AM 39.2 °F - 33.8 °F 81% 30.15 in 10.0 mi Calm Calm - N/A   Clear
1:35 AM 41.0 °F - 35.6 °F 81% 30.16 in 10.0 mi Calm Calm - N/A   Clear
1:55 AM 39.2 °F - 33.8 °F 81% 30.16 in 10.0 mi Calm Calm - N/A   Clear
2:15 AM 37.4 °F - 33.8 °F 87% 30.16 in 10.0 mi Calm Calm - N/A   Clear
2:35 AM 39.2 °F - 33.8 °F 81% 30.16 in 10.0 mi Calm Calm - N/A   Clear
2:55 AM 39.2 °F - 33.8 °F 81% 30.16 in 10.0 mi Calm Calm - N/A   Clear
3:15 AM 39.2 °F - 33.8 °F 81% 30.16 in 10.0 mi Calm Calm - N/A   Clear
3:35 AM 37.4 °F 34.9 °F 30.2 °F 75% 30.16 in 10.0 mi ENE 3.5 mph - N/A   Clear
3:55 AM 35.6 °F 32.8 °F 30.2 °F 81% 30.16 in 10.0 mi ESE 3.5 mph - N/A   Clear
4:15 AM 35.6 °F - 30.2 °F 81% 30.16 in 10.0 mi Calm Calm - N/A   Clear
4:35 AM 39.2 °F 37.0 °F 32.0 °F 75% 30.16 in 10.0 mi East 3.5 mph - N/A   Clear
4:55 AM 41.0 °F - 28.4 °F 61% 30.16 in 10.0 mi Calm Calm - N/A   Clear
5:15 AM 37.4 °F - 28.4 °F 70% 30.17 in 10.0 mi Calm Calm - N/A   Clear
5:35 AM 37.4 °F - 28.4 °F 70% 30.17 in 10.0 mi Calm Calm - N/A   Clear
5:55 AM 41.0 °F - 28.4 °F 61% 30.17 in 10.0 mi Calm Calm - N/A   Clear
6:15 AM 37.4 °F - 28.4 °F 70% 30.17 in 10.0 mi Calm Calm - N/A   Clear
6:55 AM 35.6 °F - 26.6 °F 70% 30.17 in 10.0 mi Calm Calm - N/A   Partly Cloudy
7:52 AM 37.4 °F 33.8 °F 30.2 °F 75% 30.18 in 15.0 mi East 4.6 mph - N/A   Partly Cloudy
8:49 AM 41.0 °F 39.0 °F 30.2 °F 65% 30.20 in 15.0 mi SSE 3.5 mph - N/A   Partly Cloudy
9:56 AM 46.4 °F - 32.0 °F 57% 30.21 in 15.0 mi Calm Calm - N/A   Partly Cloudy
10:47 AM 50.0 °F - 33.8 °F 54% 30.21 in 15.0 mi Calm Calm - N/A   Partly Cloudy
11:58 AM 53.6 °F - 35.6 °F 51% 30.19 in 15.0 mi Calm Calm - N/A   Partly Cloudy
12:47 PM 53.6 °F - 35.6 °F 51% 30.18 in 15.0 mi Variable 4.6 mph - N/A   Partly Cloudy
1:57 PM 57.2 °F - 33.8 °F 41% 30.15 in 15.0 mi Variable 4.6 mph - N/A   Partly Cloudy
3:50 PM 60.8 °F - 35.6 °F 39% 30.12 in 15.0 mi Variable 4.6 mph - N/A   Partly Cloudy
4:50 PM 60.8 °F - 32.0 °F 34% 30.11 in 15.0 mi Variable 4.6 mph - N/A   Scattered Clouds
5:50 PM 59.0 °F - 33.8 °F 39% 30.11 in 15.0 mi Calm Calm - N/A   Scattered Clouds
6:50 PM 55.4 °F - 42.8 °F 63% 30.12 in 15.0 mi Variable 4.6 mph - N/A   Scattered Clouds
7:50 PM 55.4 °F - 35.6 °F 47% 30.14 in 15.0 mi NW 9.2 mph - N/A   Scattered Clouds
8:50 PM 53.6 °F - 35.6 °F 51% 30.15 in 15.0 mi Variable 4.6 mph - N/A   Scattered Clouds
9:15 PM 51.8 °F - 37.4 °F 58% 30.15 in 10.0 mi Calm Calm - N/A   Clear
9:35 PM 48.2 °F - 37.4 °F 66% 30.16 in 10.0 mi South 3.5 mph - N/A   Clear
9:55 PM 48.2 °F - 37.4 °F 66% 30.16 in 10.0 mi Calm Calm - N/A   Clear
10:15 PM 44.6 °F 43.1 °F 37.4 °F 76% 30.16 in 10.0 mi ENE 3.5 mph - N/A   Clear
10:35 PM 44.6 °F 43.1 °F 37.4 °F 76% 30.17 in 10.0 mi East 3.5 mph - N/A   Clear
10:55 PM 44.6 °F - 35.6 °F 71% 30.17 in 10.0 mi Calm Calm - N/A   Clear
11:15 PM 46.4 °F - 37.4 °F 71% 30.18 in 10.0 mi Calm Calm - N/A   Clear
11:35 PM 46.4 °F - 37.4 °F 71% 30.18 in 10.0 mi Calm Calm - N/A   Clear
11:55 PM 44.6 °F - 37.4 °F 76% 30.18 in 10.0 mi Calm Calm - N/A   Clear